| time (UTC) | temp F | wind direction | speed knots | gust knots | rain 1hr in | rain 24hr in | rain mn in | humidity % | barometer mb |
| 20260504232024 | 84 | 224 | 7.8 | 12.2 | 0.00 | 0.00 | 0.00 | 20 | 1004.1 |
| 20260504231521 | 84 | 226 | 5.2 | 11.3 | 0.00 | 0.00 | 0.00 | 21 | 1004.2 |
| 20260504231017 | 85 | 228 | 8.7 | 12.2 | 0.00 | 0.00 | 0.00 | 20 | 1004.1 |
| 20260504230513 | 84 | 246 | 4.3 | 15.6 | 0.00 | 0.00 | 0.00 | 20 | 1004.3 |
| 20260504230013 | 84 | 246 | 10.4 | 13.0 | 0.00 | 0.00 | 0.00 | 21 | 1004.2 |
| 20260504225509 | 84 | 241 | 8.7 | 14.8 | 0.00 | 0.00 | 0.00 | 22 | 1004.5 |
| 20260504225006 | 85 | 229 | 9.6 | 13.0 | 0.00 | 0.00 | 0.00 | 21 | 1004.4 |
| 20260504224502 | 85 | 253 | 7.8 | 20.9 | 0.00 | 0.00 | 0.00 | 22 | 1004.5 |
| 20260504223959 | 85 | 228 | 11.3 | 19.1 | 0.00 | 0.00 | 0.00 | 22 | 1004.7 |
| 20260504223456 | 86 | 238 | 7.8 | 16.5 | 0.00 | 0.00 | 0.00 | 21 | 1004.7 |
| 20260504222951 | 85 | 226 | 4.3 | 10.4 | 0.00 | 0.00 | 0.00 | 21 | 1004.7 |
| 20260504222449 | 85 | 243 | 7.8 | 15.6 | 0.00 | 0.00 | 0.00 | 20 | 1005.0 |
| 20260504221947 | 86 | 259 | 3.5 | 10.4 | 0.00 | 0.00 | 0.00 | 19 | 1004.8 |
| 20260504221444 | 85 | 299 | 3.5 | 11.3 | 0.00 | 0.00 | 0.00 | 20 | 1004.9 |
| 20260504220941 | 86 | 247 | 10.4 | 13.0 | 0.00 | 0.00 | 0.00 | 20 | 1004.9 |
| 20260504220437 | 86 | 230 | 7.8 | 15.6 | 0.00 | 0.00 | 0.00 | 20 | 1004.9 |
| 20260504215934 | 86 | 213 | 9.6 | 13.9 | 0.00 | 0.00 | 0.00 | 19 | 1004.9 |
| 20260504215431 | 86 | 238 | 7.8 | 11.3 | 0.00 | 0.00 | 0.00 | 19 | 1004.9 |
| 20260504214927 | 85 | 246 | 3.5 | 13.0 | 0.00 | 0.00 | 0.00 | 20 | 1005.0 |
| 20260504214424 | 86 | 250 | 5.2 | 16.5 | 0.00 | 0.00 | 0.00 | 20 | 1005.1 |
| 20260504213920 | 85 | 287 | 5.2 | 12.2 | 0.00 | 0.00 | 0.00 | 20 | 1005.2 |
| 20260504213416 | 85 | 286 | 10.4 | 14.8 | 0.00 | 0.00 | 0.00 | 20 | 1005.2 |
| 20260504212914 | 85 | 234 | 11.3 | 19.1 | 0.00 | 0.00 | 0.00 | 20 | 1005.2 |
| 20260504212409 | 85 | 206 | 13.9 | 20.0 | 0.00 | 0.00 | 0.00 | 20 | 1005.2 |
| 20260504211908 | 85 | 241 | 7.0 | 16.5 | 0.00 | 0.00 | 0.00 | 21 | 1005.3 |
| 20260504211404 | 85 | 226 | 7.8 | 14.8 | 0.00 | 0.00 | 0.00 | 21 | 1005.8 |
| 20260504210901 | 85 | 233 | 10.4 | 16.5 | 0.00 | 0.00 | 0.00 | 21 | 1005.7 |
| 20260504210358 | 85 | 232 | 8.7 | 17.4 | 0.00 | 0.00 | 0.00 | 21 | 1005.8 |
| 20260504205855 | 85 | 235 | 9.6 | 20.0 | 0.00 | 0.00 | 0.00 | 20 | 1005.9 |
| 20260504205353 | 85 | 230 | 11.3 | 16.5 | 0.00 | 0.00 | 0.00 | 20 | 1006.0 |
| 20260504204851 | 85 | 234 | 5.2 | 10.4 | 0.00 | 0.00 | 0.00 | 23 | 1005.9 |
| 20260504204349 | 84 | 239 | 7.0 | 12.2 | 0.00 | 0.00 | 0.00 | 22 | 1006.0 |
| 20260504203848 | 84 | 227 | 11.3 | 18.2 | 0.00 | 0.00 | 0.00 | 22 | 1006.1 |
| 20260504203344 | 85 | 225 | 10.4 | 16.5 | 0.00 | 0.00 | 0.00 | 22 | 1006.0 |
| 20260504202840 | 85 | 322 | 2.6 | 7.8 | 0.00 | 0.00 | 0.00 | 23 | 1006.2 |
| 20260504202338 | 86 | 224 | 6.1 | 13.0 | 0.00 | 0.00 | 0.00 | 23 | 1006.1 |
| 20260504201834 | 85 | 230 | 7.0 | 13.0 | 0.00 | 0.00 | 0.00 | 23 | 1006.4 |
| 20260504201332 | 85 | 225 | 12.2 | 19.1 | 0.00 | 0.00 | 0.00 | 22 | 1006.4 |
| 20260504200829 | 84 | 236 | 9.6 | 14.8 | 0.00 | 0.00 | 0.00 | 22 | 1006.6 |
| 20260504200325 | 84 | 247 | 5.2 | 18.2 | 0.00 | 0.00 | 0.00 | 23 | 1006.6 |
| 20260504195822 | 84 | 231 | 8.7 | 11.3 | 0.00 | 0.00 | 0.00 | 23 | 1006.7 |
| 20260504195317 | 84 | 229 | 8.7 | 13.0 | 0.00 | 0.00 | 0.00 | 23 | 1006.7 |
| 20260504194814 | 84 | 234 | 8.7 | 15.6 | 0.00 | 0.00 | 0.00 | 23 | 1006.6 |
| 20260504194310 | 83 | 247 | 7.0 | 13.0 | 0.00 | 0.00 | 0.00 | 23 | 1006.9 |
| 20260504193807 | 83 | 227 | 11.3 | 12.2 | 0.00 | 0.00 | 0.00 | 24 | 1007.0 |
| 20260504193304 | 83 | 227 | 7.0 | 13.9 | 0.00 | 0.00 | 0.00 | 25 | 1007.1 |
| 20260504192803 | 84 | 308 | 3.5 | 10.4 | 0.00 | 0.00 | 0.00 | 26 | 1007.1 |
| 20260504192300 | 83 | 274 | 5.2 | 9.6 | 0.00 | 0.00 | 0.00 | 25 | 1007.1 |
| 20260504191759 | 82 | 238 | 6.1 | 12.2 | 0.00 | 0.00 | 0.00 | 26 | 1007.0 |
| 20260504191256 | 83 | 232 | 7.0 | 8.7 | 0.00 | 0.00 | 0.00 | 25 | 1007.1 |
| 20260504190751 | 83 | 303 | 8.7 | 15.6 | 0.00 | 0.00 | 0.00 | 25 | 1007.2 |
| 20260504190248 | 83 | 271 | 1.7 | 6.1 | 0.00 | 0.00 | 0.00 | 26 | 1007.4 |
| 20260504185744 | 82 | 226 | 5.2 | 13.0 | 0.00 | 0.00 | 0.00 | 26 | 1007.3 |
| 20260504185241 | 83 | 232 | 7.0 | 11.3 | 0.00 | 0.00 | 0.00 | 26 | 1007.4 |
| 20260504184737 | 83 | 295 | 7.0 | 15.6 | 0.00 | 0.00 | 0.00 | 25 | 1007.7 |
| 20260504184233 | 83 | 295 | 5.2 | 12.2 | 0.00 | 0.00 | 0.00 | 26 | 1007.6 |
| 20260504183729 | 82 | 286 | 3.5 | 11.3 | 0.00 | 0.00 | 0.00 | 26 | 1007.8 |
| 20260504183226 | 83 | 239 | 7.0 | 16.5 | 0.00 | 0.00 | 0.00 | 25 | 1008.0 |
| 20260504182724 | 83 | 206 | 3.5 | 14.8 | 0.00 | 0.00 | 0.00 | 25 | 1007.8 |
| 20260504182221 | 82 | 267 | 5.2 | 12.2 | 0.00 | 0.00 | 0.00 | 25 | 1008.1 |
| 20260504181719 | 82 | 248 | 3.5 | 13.9 | 0.00 | 0.00 | 0.00 | 26 | 1008.2 |
| 20260504181216 | 82 | 237 | 5.2 | 13.0 | 0.00 | 0.00 | 0.00 | 25 | 1008.3 |
| 20260504180715 | 82 | 278 | 10.4 | 12.2 | 0.00 | 0.00 | 0.00 | 24 | 1008.4 |
| 20260504180213 | 82 | 313 | 2.6 | 10.4 | 0.00 | 0.00 | 0.00 | 25 | 1008.6 |
| 20260504175710 | 82 | 289 | 10.4 | 14.8 | 0.00 | 0.00 | 0.00 | 24 | 1008.6 |
| 20260504175207 | 82 | 294 | 10.4 | 16.5 | 0.00 | 0.00 | 0.00 | 26 | 1008.9 |
| 20260504174705 | 82 | 231 | 14.8 | 15.6 | 0.00 | 0.00 | 0.00 | 27 | 1008.7 |
| 20260504174203 | 81 | 235 | 11.3 | 14.8 | 0.00 | 0.00 | 0.00 | 27 | 1008.9 |
| 20260504173659 | 81 | 233 | 5.2 | 14.8 | 0.00 | 0.00 | 0.00 | 28 | 1008.9 |
| 20260504173156 | 81 | 323 | 13.0 | 18.2 | 0.00 | 0.00 | 0.00 | 26 | 1008.9 |
| 20260504172652 | 81 | 292 | 4.3 | 13.0 | 0.00 | 0.00 | 0.00 | 28 | 1009.2 |
| 20260504172149 | 81 | 230 | 12.2 | 13.9 | 0.00 | 0.00 | 0.00 | 27 | 1009.1 |
| 20260504171645 | 80 | 220 | 11.3 | 13.9 | 0.00 | 0.00 | 0.00 | 27 | 1009.0 |
| 20260504171143 | 81 | 240 | 6.1 | 13.9 | 0.00 | 0.00 | 0.00 | 28 | 1009.0 |
| 20260504170639 | 81 | 227 | 12.2 | 13.0 | 0.00 | 0.00 | 0.00 | 27 | 1009.2 |
| 20260504170137 | 81 | 286 | 7.0 | 13.0 | 0.00 | 0.00 | 0.00 | 26 | 1009.2 |
| 20260504151022 | 72 | 243 | 2.6 | 12.2 | 0.00 | 0.00 | 0.00 | 44 | 1009.7 |
| 20260504150520 | 71 | 243 | 4.3 | 9.6 | 0.00 | 0.00 | 0.00 | 45 | 1009.9 |
| 20260504140940 | 64 | 240 | 7.0 | 11.3 | 0.00 | 0.00 | 0.00 | 54 | 1010.1 |
| 20260504140436 | 64 | 252 | 9.6 | 12.2 | 0.00 | 0.00 | 0.00 | 55 | 1009.9 |
| 20260504130401 | 59 | 221 | 7.8 | 9.6 | 0.00 | 0.00 | 0.00 | 62 | 1009.1 |
| 20260504110248 | 59 | 238 | 8.7 | 13.9 | 0.00 | 0.00 | 0.00 | 61 | 1009.0 |
| 20260504100206 | 59 | 230 | 6.1 | 13.0 | 0.00 | 0.00 | 0.00 | 60 | 1009.3 |
| 20260504090128 | 59 | 209 | 11.3 | 14.8 | 0.00 | 0.00 | 0.00 | 59 | 1009.9 |
| 20260504081558 | 60 | 212 | 16.5 | 21.7 | 0.00 | 0.00 | 0.00 | 56 | 1010.2 |
| 20260504081054 | 60 | 212 | 16.5 | 20.0 | 0.00 | 0.00 | 0.00 | 55 | 1010.2 |
| 20260504080551 | 60 | 211 | 13.0 | 15.6 | 0.00 | 0.00 | 0.00 | 55 | 1010.2 |
| 20260504050404 | 56 | 177 | 3.5 | 5.2 | 0.00 | 0.00 | 0.00 | 48 | 1012.1 |
| 20260504045901 | 57 | 187 | 3.5 | 6.1 | 0.00 | 0.00 | 0.00 | 48 | 1012.2 |
| 20260504045356 | 57 | 196 | 4.3 | 7.8 | 0.00 | 0.00 | 0.00 | 47 | 1012.2 |
| 20260504044853 | 58 | 175 | 4.3 | 7.8 | 0.00 | 0.00 | 0.00 | 46 | 1012.0 |
| 20260504044350 | 59 | 189 | 7.0 | 8.7 | 0.00 | 0.00 | 0.00 | 45 | 1012.1 |
| 20260504043848 | 59 | 169 | 7.0 | 9.6 | 0.00 | 0.00 | 0.00 | 45 | 1012.2 |
| 20260504043344 | 59 | 184 | 7.8 | 9.6 | 0.00 | 0.00 | 0.00 | 45 | 1012.2 |
| 20260504042842 | 59 | 193 | 5.2 | 8.7 | 0.00 | 0.00 | 0.00 | 44 | 1012.3 |
| 20260504042338 | 59 | 195 | 5.2 | 9.6 | 0.00 | 0.00 | 0.00 | 45 | 1012.5 |
| 20260504041835 | 58 | 193 | 3.5 | 6.1 | 0.00 | 0.00 | 0.00 | 45 | 1012.5 |
| 20260504041331 | 58 | 188 | 5.2 | 7.8 | 0.00 | 0.00 | 0.00 | 46 | 1012.3 |
| 20260504040827 | 58 | 169 | 5.2 | 7.8 | 0.00 | 0.00 | 0.00 | 45 | 1012.2 |
| 20260504040325 | 57 | 154 | 5.2 | 6.1 | 0.00 | 0.00 | 0.00 | 46 | 1012.3 |
| 20260504035820 | 58 | 159 | 3.5 | 6.1 | 0.00 | 0.00 | 0.00 | 46 | 1012.5 |
| 20260504035318 | 58 | 163 | 7.0 | 7.8 | 0.00 | 0.00 | 0.00 | 46 | 1012.6 |
| 20260504034815 | 57 | 165 | 5.2 | 7.8 | 0.00 | 0.00 | 0.00 | 47 | 1012.5 |
| 20260504034313 | 57 | 159 | 4.3 | 5.2 | 0.00 | 0.00 | 0.00 | 47 | 1012.3 |
| 20260504033810 | 57 | 153 | 4.3 | 5.2 | 0.00 | 0.00 | 0.00 | 46 | 1012.5 |
| 20260504033308 | 60 | 157 | 5.2 | 8.7 | 0.00 | 0.00 | 0.00 | 43 | 1012.6 |
| 20260504032804 | 61 | 153 | 7.8 | 9.6 | 0.00 | 0.00 | 0.00 | 42 | 1012.6 |
| 20260504032301 | 58 | 140 | 3.5 | 6.1 | 0.00 | 0.00 | 0.00 | 44 | 1012.3 |
| 20260504031757 | 57 | 151 | 3.5 | 4.3 | 0.00 | 0.00 | 0.00 | 44 | 1012.5 |
| 20260504031255 | 57 | 153 | 2.6 | 2.6 | 0.00 | 0.00 | 0.00 | 44 | 1012.3 |
| 20260504030751 | 58 | 151 | 3.5 | 4.3 | 0.00 | 0.00 | 0.00 | 43 | 1012.2 |
| 20260504030248 | 58 | 146 | 3.5 | 4.3 | 0.00 | 0.00 | 0.00 | 44 | 1012.3 |
| 20260504025745 | 58 | 154 | 2.6 | 3.5 | 0.00 | 0.00 | 0.00 | 44 | 1012.3 |
| 20260504025242 | 58 | 155 | 2.6 | 3.5 | 0.00 | 0.00 | 0.00 | 44 | 1012.2 |
| 20260504024739 | 59 | 156 | 3.5 | 3.5 | 0.00 | 0.00 | 0.00 | 43 | 1012.3 |
| 20260504024235 | 61 | 154 | 4.3 | 5.2 | 0.00 | 0.00 | 0.00 | 40 | 1012.5 |
| 20260504023732 | 62 | 149 | 3.5 | 5.2 | 0.00 | 0.00 | 0.00 | 40 | 1012.5 |
| 20260504023228 | 62 | 164 | 2.6 | 3.5 | 0.00 | 0.00 | 0.00 | 40 | 1012.3 |
| 20260504022724 | 63 | 171 | 2.6 | 3.5 | 0.00 | 0.00 | 0.00 | 39 | 1012.1 |
| 20260504022220 | 64 | 186 | 2.6 | 4.3 | 0.00 | 0.00 | 0.00 | 38 | 1012.3 |
| 20260504021718 | 65 | 188 | 4.3 | 4.3 | 0.00 | 0.00 | 0.00 | 38 | 1012.2 |
| 20260504021215 | 66 | 197 | 4.3 | 6.1 | 0.00 | 0.00 | 0.00 | 37 | 1012.2 |
| 20260504020712 | 67 | 207 | 5.2 | 6.1 | 0.00 | 0.00 | 0.00 | 37 | 1012.2 |
| 20260504020208 | 68 | 196 | 3.5 | 7.0 | 0.00 | 0.00 | 0.00 | 36 | 1012.0 |
| 20260504015705 | 69 | 205 | 6.1 | 8.7 | 0.00 | 0.00 | 0.00 | 35 | 1012.1 |
| 20260504015201 | 70 | 200 | 7.8 | 12.2 | 0.00 | 0.00 | 0.00 | 34 | 1012.2 |
| 20260504014656 | 71 | 206 | 9.6 | 13.0 | 0.00 | 0.00 | 0.00 | 33 | 1012.1 |
| 20260504014154 | 72 | 209 | 10.4 | 16.5 | 0.00 | 0.00 | 0.00 | 32 | 1012.0 |
| 20260504013652 | 71 | 208 | 7.8 | 11.3 | 0.00 | 0.00 | 0.00 | 33 | 1012.0 |
| 20260504013148 | 71 | 198 | 7.8 | 13.9 | 0.00 | 0.00 | 0.00 | 33 | 1011.9 |
| 20260504012645 | 72 | 209 | 11.3 | 15.6 | 0.00 | 0.00 | 0.00 | 32 | 1011.8 |
| 20260504012143 | 73 | 210 | 10.4 | 15.6 | 0.00 | 0.00 | 0.00 | 32 | 1012.0 |
| 20260504011640 | 73 | 206 | 13.9 | 17.4 | 0.00 | 0.00 | 0.00 | 31 | 1012.1 |
| 20260504011136 | 73 | 209 | 8.7 | 15.6 | 0.00 | 0.00 | 0.00 | 31 | 1011.8 |
| 20260504010632 | 74 | 218 | 7.0 | 17.4 | 0.00 | 0.00 | 0.00 | 31 | 1012.0 |
| 20260504010128 | 74 | 206 | 11.3 | 15.6 | 0.00 | 0.00 | 0.00 | 30 | 1012.0 |
| 20260504005625 | 74 | 210 | 6.1 | 14.8 | 0.00 | 0.00 | 0.00 | 31 | 1012.1 |
| 20260504005122 | 74 | 215 | 14.8 | 15.6 | 0.00 | 0.00 | 0.00 | 30 | 1012.1 |
| 20260504004620 | 74 | 203 | 13.0 | 19.1 | 0.00 | 0.00 | 0.00 | 30 | 1012.1 |
| 20260504004117 | 75 | 211 | 15.6 | 18.2 | 0.00 | 0.00 | 0.00 | 29 | 1012.3 |
| 20260504003614 | 75 | 214 | 11.3 | 15.6 | 0.00 | 0.00 | 0.00 | 29 | 1012.0 |
| 20260504003110 | 75 | 214 | 14.8 | 19.1 | 0.00 | 0.00 | 0.00 | 29 | 1012.1 |
| 20260504002607 | 75 | 212 | 14.8 | 19.1 | 0.00 | 0.00 | 0.00 | 29 | 1012.3 |
| 20260504002105 | 76 | 216 | 14.8 | 21.7 | 0.00 | 0.00 | 0.00 | 29 | 1012.5 |
| 20260504001602 | 76 | 229 | 13.0 | 20.9 | 0.00 | 0.00 | 0.00 | 29 | 1012.5 |
| 20260504001058 | 76 | 209 | 14.8 | 18.2 | 0.00 | 0.00 | 0.00 | 29 | 1012.2 |
| 20260504000555 | 76 | 218 | 13.0 | 20.0 | 0.00 | 0.00 | 0.00 | 29 | 1012.7 |
| 20260504000053 | 76 | 197 | 14.8 | 21.7 | 0.00 | 0.00 | 0.00 | 29 | 1012.3 |
| 20260503235551 | 77 | 200 | 14.8 | 20.9 | 0.00 | 0.00 | 0.00 | 28 | 1012.3 |
| 20260503235048 | 77 | 210 | 16.5 | 20.0 | 0.00 | 0.00 | 0.00 | 28 | 1012.2 |
| 20260503234545 | 76 | 220 | 13.0 | 24.3 | 0.00 | 0.00 | 0.00 | 29 | 1012.5 |
| 20260503234043 | 77 | 216 | 16.5 | 23.5 | 0.00 | 0.00 | 0.00 | 28 | 1012.3 |
| 20260503233539 | 78 | 210 | 13.0 | 19.1 | 0.00 | 0.00 | 0.00 | 27 | 1012.2 |
| 20260503233035 | 77 | 211 | 20.9 | 24.3 | 0.00 | 0.00 | 0.00 | 28 | 1012.5 |
| 20260503232533 | 77 | 202 | 12.2 | 17.4 | 0.00 | 0.00 | 0.00 | 28 | 1012.5 |